When you browse on this site, cookies collect data to enhance your experience and personalize the content and advertising you see.
Visit our Privacy Policy to learn more. By continuing to use the site, you agree to this use of cookies and data.
  • In France
  • List of Countries
  • For 7 days
  • Water Temperature
  • Satellite Maps
  • Weather Map
  • Weather Widgets
  • user-avatar
    Login

    Hourly Weather Herāt

    Today, 23 July, Tuesday

    Time Temperature Precipitation Wind Pressure Humidity
    00:00 +29°C° 0 mm 9 mps 675 mmHg 15%
    01:00 +28°C° 0 mm 8 mps 675 mmHg 15%
    02:00 +27°C° 0 mm 7 mps 674 mmHg 16%
    03:00 +26°C° 0 mm 5 mps 674 mmHg 18%
    04:00 +25°C° 0 mm 4 mps 674 mmHg 19%
    05:00 +27°C° 0 mm 4 mps 674 mmHg 17%
    06:00 +28°C° 0 mm 4 mps 675 mmHg 16%
    07:00 +30°C° 0 mm 4 mps 676 mmHg 15%
    08:00 +33°C° 0 mm 5 mps 676 mmHg 13%
    09:00 +36°C° 0 mm 5 mps 676 mmHg 12%
    10:00 +39°C° 0 mm 6 mps 676 mmHg 11%
    11:00 +40°C° 0 mm 7 mps 676 mmHg 10%
    12:00 +41°C° 0 mm 8 mps 676 mmHg 10%
    13:00 +43°C° 0 mm 9 mps 676 mmHg 10%
    14:00 +43°C° 0 mm 10 mps 676 mmHg 9%
    15:00 +42°C° 0 mm 11 mps 675 mmHg 9%
    16:00 +42°C° 0 mm 12 mps 675 mmHg 9%
    17:00 +39°C° 0 mm 11 mps 675 mmHg 9%
    18:00 +37°C° 0 mm 10 mps 675 mmHg 9%
    19:00 +34°C° 0 mm 8 mps 675 mmHg 9%
    20:00 +33°C° 0 mm 8 mps 675 mmHg 10%
    21:00 +32°C° 0 mm 7 mps 675 mmHg 11%
    22:00 +30°C° 0 mm 6 mps 675 mmHg 12%
    23:00 +29°C° 0 mm 6 mps 674 mmHg 12%

    Tomorrow, 24 July, Wednesday

    Time Temperature Precipitation Wind Pressure Humidity
    00:00 +28°C° 0 mm 5 mps 674 mmHg 13%
    01:00 +28°C° 0 mm 4 mps 673 mmHg 14%
    02:00 +27°C° 0 mm 4 mps 673 mmHg 14%
    03:00 +26°C° 0 mm 3 mps 673 mmHg 15%
    04:00 +25°C° 0 mm 3 mps 673 mmHg 15%
    05:00 +27°C° 0 mm 3 mps 673 mmHg 14%
    06:00 +30°C° 0 mm 3 mps 674 mmHg 12%
    07:00 +33°C° 0 mm 3 mps 675 mmHg 11%
    08:00 +35°C° 0 mm 5 mps 675 mmHg 10%
    09:00 +39°C° 0 mm 7 mps 675 mmHg 9%
    10:00 +41°C° 0 mm 8 mps 676 mmHg 8%
    11:00 +43°C° 0 mm 10 mps 675 mmHg 8%
    12:00 +43°C° 0 mm 13 mps 675 mmHg 7%
    13:00 +45°C° 0 mm 15 mps 675 mmHg 7%
    14:00 +45°C° 0 mm 15 mps 674 mmHg 7%
    15:00 +45°C° 0 mm 14 mps 674 mmHg 7%
    16:00 +45°C° 0 mm 14 mps 674 mmHg 7%
    17:00 +43°C° 0 mm 13 mps 674 mmHg 7%
    18:00 +41°C° 0 mm 12 mps 673 mmHg 8%
    19:00 +38°C° 0 mm 10 mps 673 mmHg 9%
    20:00 +37°C° 0 mm 10 mps 673 mmHg 11%
    21:00 +36°C° 0 mm 10 mps 674 mmHg 12%
    22:00 +34°C° 0 mm 9 mps 674 mmHg 13%
    23:00 +33°C° 0 mm 9 mps 674 mmHg 15%

    Day after tomorrow, 25 July, Thursday

    Time Temperature Precipitation Wind Pressure Humidity
    00:00 +32°C° 0 mm 9 mps 673 mmHg 17%
    01:00 +31°C° 0 mm 9 mps 673 mmHg 19%
    02:00 +29°C° 0 mm 8 mps 673 mmHg 21%
    03:00 +28°C° 0 mm 8 mps 673 mmHg 23%
    04:00 +27°C° 0 mm 8 mps 673 mmHg 25%
    05:00 +29°C° 0 mm 8 mps 673 mmHg 23%
    06:00 +31°C° 0 mm 8 mps 674 mmHg 21%
    07:00 +33°C° 0 mm 8 mps 674 mmHg 19%
    08:00 +36°C° 0 mm 10 mps 675 mmHg 17%
    09:00 +38°C° 0 mm 12 mps 675 mmHg 15%
    10:00 +41°C° 0 mm 14 mps 675 mmHg 13%
    11:00 +42°C° 0 mm 14 mps 675 mmHg 12%
    12:00 +42°C° 0 mm 15 mps 674 mmHg 12%
    13:00 +43°C° 0 mm 15 mps 674 mmHg 12%
    14:00 +43°C° 0 mm 15 mps 674 mmHg 11%
    15:00 +43°C° 0 mm 15 mps 673 mmHg 11%
    16:00 +43°C° 0 mm 15 mps 673 mmHg 10%
    17:00 +42°C° 0 mm 14 mps 673 mmHg 12%
    18:00 +40°C° 0 mm 14 mps 673 mmHg 13%
    19:00 +38°C° 0 mm 13 mps 673 mmHg 15%
    20:00 +37°C° 0 mm 13 mps 673 mmHg 16%
    21:00 +36°C° 0 mm 14 mps 674 mmHg 17%
    22:00 +34°C° 0 mm 14 mps 674 mmHg 18%
    23:00 +33°C° 0 mm 12 mps 674 mmHg 19%

    26 July, Friday

    Time Temperature Precipitation Wind Pressure Humidity
    00:00 +31°C° 0 mm 11 mps 673 mmHg 20%
    01:00 +29°C° 0 mm 9 mps 673 mmHg 21%
    02:00 +28°C° 0 mm 8 mps 673 mmHg 22%
    03:00 +27°C° 0 mm 7 mps 672 mmHg 23%
    04:00 +26°C° 0 mm 5 mps 672 mmHg 24%
    05:00 +28°C° 0 mm 6 mps 673 mmHg 21%
    06:00 +30°C° 0 mm 7 mps 673 mmHg 19%
    07:00 +32°C° 0 mm 8 mps 674 mmHg 16%
    08:00 +34°C° 0 mm 11 mps 674 mmHg 14%
    09:00 +37°C° 0 mm 14 mps 674 mmHg 12%
    10:00 +41°C° 0 mm 17 mps 675 mmHg 11%
    11:00 +41°C° 0 mm 18 mps 674 mmHg 10%
    12:00 +42°C° 0 mm 18 mps 674 mmHg 10%
    13:00 +44°C° 0 mm 18 mps 674 mmHg 10%
    14:00 +44°C° 0 mm 18 mps 673 mmHg 10%
    15:00 +44°C° 0 mm 17 mps 673 mmHg 10%
    16:00 +44°C° 0 mm 17 mps 673 mmHg 10%
    17:00 +42°C° 0 mm 16 mps 673 mmHg 11%
    18:00 +40°C° 0 mm 15 mps 673 mmHg 11%
    19:00 +38°C° 0 mm 14 mps 673 mmHg 12%
    20:00 +37°C° 0 mm 14 mps 673 mmHg 13%
    21:00 +36°C° 0 mm 14 mps 674 mmHg 14%
    22:00 +34°C° 0 mm 14 mps 674 mmHg 15%
    23:00 +33°C° 0 mm 13 mps 674 mmHg 15%

    27 July, Saturday

    Time Temperature Precipitation Wind Pressure Humidity
    00:00 +33°C° 0 mm 13 mps 674 mmHg 16%
    01:00 +32°C° 0 mm 12 mps 674 mmHg 17%
    02:00 +31°C° 0 mm 11 mps 674 mmHg 17%
    03:00 +29°C° 0 mm 10 mps 674 mmHg 18%
    04:00 +29°C° 0 mm 9 mps 673 mmHg 19%
    05:00 +31°C° 0 mm 10 mps 674 mmHg 17%
    06:00 +33°C° 0 mm 12 mps 674 mmHg 16%
    07:00 +36°C° 0 mm 13 mps 675 mmHg 14%
    08:00 +37°C° 0 mm 14 mps 675 mmHg 13%
    09:00 +40°C° 0 mm 15 mps 676 mmHg 12%
    10:00 +42°C° 0 mm 15 mps 676 mmHg 10%
    11:00 +43°C° 0 mm 15 mps 676 mmHg 10%
    12:00 +43°C° 0 mm 14 mps 675 mmHg 10%
    13:00 +45°C° 0 mm 14 mps 675 mmHg 10%
    14:00 +45°C° 0 mm 14 mps 675 mmHg 10%
    15:00 +45°C° 0 mm 14 mps 674 mmHg 10%
    16:00 +45°C° 0 mm 14 mps 674 mmHg 10%
    17:00 +42°C° 0 mm 13 mps 674 mmHg 11%
    18:00 +39°C° 0 mm 11 mps 674 mmHg 12%
    19:00 +38°C° 0 mm 10 mps 674 mmHg 13%
    20:00 +37°C° 0 mm 10 mps 674 mmHg 14%
    21:00 +35°C° 0 mm 9 mps 674 mmHg 15%
    22:00 +34°C° 0 mm 8 mps 674 mmHg 16%
    23:00 +33°C° 0 mm 8 mps 674 mmHg 17%

    28 July, Sunday

    Time Temperature Precipitation Wind Pressure Humidity
    00:00 +32°C° 0 mm 7 mps 674 mmHg 18%
    01:00 +30°C° 0 mm 7 mps 674 mmHg 18%
    02:00 +29°C° 0 mm 6 mps 674 mmHg 20%
    03:00 +29°C° 0 mm 5 mps 673 mmHg 21%
    04:00 +28°C° 0 mm 4 mps 673 mmHg 22%
    05:00 +29°C° 0 mm 5 mps 674 mmHg 20%
    06:00 +32°C° 0 mm 5 mps 674 mmHg 18%
    07:00 +34°C° 0 mm 5 mps 674 mmHg 16%
    08:00 +36°C° 0 mm 6 mps 675 mmHg 13%
    09:00 +40°C° 0 mm 8 mps 675 mmHg 11%
    10:00 +43°C° 0 mm 10 mps 675 mmHg 8%
    11:00 +44°C° 0 mm 11 mps 675 mmHg 8%
    12:00 +44°C° 0 mm 11 mps 675 mmHg 8%
    13:00 +46°C° 0 mm 12 mps 674 mmHg 8%
    14:00 +46°C° 0 mm 13 mps 674 mmHg 8%
    15:00 +46°C° 0 mm 13 mps 674 mmHg 9%
    16:00 +45°C° 0 mm 14 mps 674 mmHg 9%
    17:00 +43°C° 0 mm 13 mps 673 mmHg 11%
    18:00 +41°C° 0 mm 13 mps 673 mmHg 13%
    19:00 +38°C° 0 mm 12 mps 673 mmHg 15%
    20:00 +37°C° 0 mm 11 mps 673 mmHg 16%
    21:00 +36°C° 0 mm 10 mps 673 mmHg 18%
    22:00 +34°C° 0 mm 9 mps 674 mmHg 19%
    23:00 +33°C° 0 mm 8 mps 673 mmHg 20%
    Show more